Time,TemperatureF,DewpointF,PressureIn,WindDirection,WindDirectionDegrees,WindSpeedMPH,WindSpeedGustMPH,Humidity,HourlyPrecipIn,Conditions,Clouds,dailyrainin,SoftwareType,DateUTC
2013-04-01 00:03:00,49.0,-99.9,29.78,South,183,6.0,7.0,-999,-99.99,,,-99.99,,2013-04-01 04:03:00,
2013-04-01 00:14:00,49.0,-99.9,29.78,North,-999,-999.0,-999.0,-999,-99.99,,,-99.99,,2013-04-01 04:14:00,
2013-04-01 00:24:00,50.0,-99.9,29.78,North,-999,-999.0,-999.0,-999,-99.99,,,-99.99,,2013-04-01 04:24:00,
2013-04-01 00:33:00,49.0,-99.9,29.78,SSW,198,1.0,1.0,-999,-99.99,,,-99.99,,2013-04-01 04:33:00,
2013-04-01 00:44:00,49.0,-99.9,29.78,ESE,122,2.0,2.0,-999,-99.99,,,-99.99,,2013-04-01 04:44:00,
2013-04-01 00:53:00,49.0,-99.9,29.78,North,-999,-999.0,-999.0,-999,-99.99,,,-99.99,,2013-04-01 04:53:00,
2013-04-01 01:03:00,48.0,-99.9,29.78,SSE,152,3.0,4.0,-999,-99.99,,,-99.99,,2013-04-01 05:03:00,
2013-04-01 01:13:00,48.0,-99.9,29.78,North,-999,-999.0,-999.0,-999,-99.99,,,-99.99,,2013-04-01 05:13:00,
2013-04-01 01:23:00,48.0,-99.9,29.78,North,-999,-999.0,-999.0,-999,-99.99,,,-99.99,,2013-04-01 05:23:00,
2013-04-01 01:33:00,48.0,-99.9,29.78,North,355,2.0,2.0,-999,-99.99,,,-99.99,,2013-04-01 05:33:00,
2013-04-01 01:43:00,48.0,-99.9,29.78,North,-999,-999.0,-999.0,-999,-99.99,,,-99.99,,2013-04-01 05:43:00,
2013-04-01 01:53:00,48.0,-99.9,-100.00,North,-999,-999.0,-999.0,-999,-99.99,,,-99.99,,2013-04-01 05:53:00,
2013-04-01 02:02:00,47.0,-99.9,29.78,NW,307,-999.0,1.0,-999,-99.99,,,-99.99,,2013-04-01 06:02:00,
2013-04-01 02:13:00,46.0,-99.9,29.78,North,-999,-999.0,-999.0,-999,-99.99,,,-99.99,,2013-04-01 06:13:00,
2013-04-01 02:23:00,47.0,-99.9,29.78,North,-999,-999.0,-999.0,-999,-99.99,,,-99.99,,2013-04-01 06:23:00,
2013-04-01 02:34:00,47.0,-99.9,29.77,NNW,343,-999.0,1.0,-999,-99.99,,,-99.99,,2013-04-01 06:34:00,
2013-04-01 02:43:00,47.0,-99.9,29.77,North,-999,-999.0,-999.0,-999,-99.99,,,-99.99,,2013-04-01 06:43:00,
2013-04-01 02:53:00,47.0,-99.9,29.77,North,-999,-999.0,-999.0,-999,-99.99,,,-99.99,,2013-04-01 06:53:00,
2013-04-01 03:03:00,46.0,-99.9,29.77,NNW,341,2.0,3.0,-999,-99.99,,,-99.99,,2013-04-01 07:03:00,
2013-04-01 03:13:00,-999.0,-99.9,29.77,NNW,341,1.0,2.0,-999,-99.99,,,-99.99,,2013-04-01 07:13:00,
2013-04-01 03:22:00,-999.0,-99.9,29.77,SSE,162,3.0,3.0,-999,-99.99,,,-99.99,,2013-04-01 07:22:00,
2013-04-01 03:32:00,45.0,-99.9,29.77,South,183,1.0,2.0,-999,-99.99,,,-99.99,,2013-04-01 07:32:00,
2013-04-01 03:43:00,46.0,-99.9,29.77,North,-999,-999.0,-999.0,-999,-99.99,,,-99.99,,2013-04-01 07:43:00,
2013-04-01 03:53:00,-999.0,-99.9,29.77,WSW,245,0.0,1.0,-999,-99.99,,,-99.99,,2013-04-01 07:53:00,
2013-04-01 04:03:00,46.0,-99.9,29.77,SSE,148,2.0,2.0,-999,-99.99,,,-99.99,,2013-04-01 08:03:00,
2013-04-01 04:13:00,46.0,-99.9,29.77,South,182,-999.0,1.0,-999,-99.99,,,-99.99,,2013-04-01 08:13:00,
2013-04-01 04:23:00,46.0,-99.9,-100.00,North,-999,-999.0,-999.0,-999,-99.99,,,-99.99,,2013-04-01 08:23:00,
2013-04-01 04:32:00,46.0,-99.9,29.77,NNW,342,2.0,3.0,-999,-99.99,,,-99.99,,2013-04-01 08:32:00,
2013-04-01 04:43:00,46.0,-99.9,29.77,North,-999,-999.0,-999.0,-999,-99.99,,,-99.99,,2013-04-01 08:43:00,
2013-04-01 04:53:00,46.0,-99.9,29.77,North,-999,-999.0,-999.0,-999,-99.99,,,-99.99,,2013-04-01 08:53:00,
2013-04-01 05:03:00,45.0,-99.9,29.77,West,259,-999.0,3.0,-999,-99.99,,,-99.99,,2013-04-01 09:03:00,
2013-04-01 05:12:00,44.0,-99.9,29.78,NW,320,1.0,1.0,-999,-99.99,,,-99.99,,2013-04-01 09:12:00,
2013-04-01 05:23:00,44.0,-99.9,29.77,North,-999,-999.0,-999.0,-999,-99.99,,,-99.99,,2013-04-01 09:23:00,
2013-04-01 05:33:00,43.0,-99.9,29.77,WNW,289,1.0,1.0,-999,-99.99,,,-99.99,,2013-04-01 09:33:00,
2013-04-01 05:43:00,43.0,-99.9,29.77,North,-999,-999.0,-999.0,-999,-99.99,,,-99.99,,2013-04-01 09:43:00,
2013-04-01 05:54:00,-999.0,-99.9,29.77,SSE,157,1.0,1.0,-999,-99.99,,,-99.99,,2013-04-01 09:54:00,
2013-04-01 06:03:00,44.0,-99.9,29.77,NNW,343,1.0,1.0,-999,-99.99,,,-99.99,,2013-04-01 10:03:00,
2013-04-01 06:13:00,43.0,-99.9,29.77,North,-999,-999.0,-999.0,-999,-99.99,,,-99.99,,2013-04-01 10:13:00,
2013-04-01 06:24:00,43.0,-99.9,29.76,North,-999,-999.0,-999.0,-999,-99.99,,,-99.99,,2013-04-01 10:24:00,
2013-04-01 06:34:00,43.0,-99.9,29.76,SSE,150,0.0,1.0,-999,-99.99,,,-99.99,,2013-04-01 10:34:00,
2013-04-01 06:43:00,44.0,-99.9,29.76,South,176,3.0,4.0,-999,-99.99,,,-99.99,,2013-04-01 10:43:00,
2013-04-01 06:54:00,-999.0,-99.9,29.76,WNW,283,2.0,3.0,-999,-99.99,,,-99.99,,2013-04-01 10:54:00,
2013-04-01 07:03:00,44.0,-99.9,29.77,SSW,195,4.0,5.0,-999,-99.99,,,-99.99,,2013-04-01 11:03:00,
2013-04-01 07:13:00,44.0,-99.9,29.77,North,-999,-999.0,-999.0,-999,-99.99,,,-99.99,,2013-04-01 11:13:00,
2013-04-01 07:23:00,-999.0,-99.9,29.77,SSW,199,5.0,6.0,-999,-99.99,,,-99.99,,2013-04-01 11:23:00,
2013-04-01 07:33:00,44.0,-99.9,29.77,SSW,196,4.0,6.0,-999,-99.99,,,-99.99,,2013-04-01 11:33:00,
2013-04-01 07:43:00,44.0,-99.9,29.77,South,175,5.0,6.0,-999,-99.99,,,-99.99,,2013-04-01 11:43:00,
2013-04-01 07:53:00,-999.0,-99.9,29.77,South,179,3.0,4.0,-999,-99.99,,,-99.99,,2013-04-01 11:53:00,
2013-04-01 08:03:00,44.0,-99.9,29.78,SSW,192,4.0,5.0,-999,-99.99,,,-99.99,,2013-04-01 12:03:00,
2013-04-01 08:12:00,-999.0,-99.9,29.78,SSW,198,6.0,7.0,-999,-99.99,,,-99.99,,2013-04-01 12:12:00,
2013-04-01 08:23:00,44.0,-99.9,29.78,North,-999,-999.0,-999.0,-999,-99.99,,,-99.99,,2013-04-01 12:23:00,
2013-04-01 08:33:00,43.0,-99.9,29.78,South,182,6.0,6.0,-999,-99.99,,,-99.99,,2013-04-01 12:33:00,
2013-04-01 08:43:00,44.0,-99.9,29.78,North,-999,-999.0,-999.0,-999,-99.99,,,-99.99,,2013-04-01 12:43:00,
2013-04-01 08:53:00,-999.0,-99.9,29.78,South,191,7.0,8.0,-999,-99.99,,,-99.99,,2013-04-01 12:53:00,
2013-04-01 09:03:00,45.0,-99.9,29.78,South,177,7.0,8.0,-999,-99.99,,,-99.99,,2013-04-01 13:03:00,
2013-04-01 09:12:00,46.0,-99.9,29.78,South,175,7.0,10.0,-999,-99.99,,,-99.99,,2013-04-01 13:12:00,
2013-04-01 09:23:00,46.0,-99.9,29.78,North,-999,-999.0,-999.0,-999,-99.99,,,-99.99,,2013-04-01 13:23:00,
2013-04-01 09:33:00,46.0,-99.9,29.78,SSE,166,7.0,7.0,-999,-99.99,,,-99.99,,2013-04-01 13:33:00,
2013-04-01 09:43:00,47.0,-99.9,29.78,SSE,163,6.0,8.0,-999,-99.99,,,-99.99,,2013-04-01 13:43:00,
2013-04-01 09:53:00,-999.0,-99.9,29.77,South,178,5.0,7.0,-999,-99.99,,,-99.99,,2013-04-01 13:53:00,
2013-04-01 10:04:00,50.0,-99.9,29.77,SSE,165,6.0,7.0,-999,-99.99,,,-99.99,,2013-04-01 14:04:00,
2013-04-01 10:13:00,50.0,-99.9,29.77,SSE,168,8.0,9.0,-999,-99.99,,,-99.99,,2013-04-01 14:13:00,
2013-04-01 10:23:00,51.0,-99.9,29.77,North,-999,-999.0,-999.0,-999,-99.99,,,-99.99,,2013-04-01 14:23:00,
2013-04-01 10:33:00,52.0,-99.9,29.76,South,183,7.0,12.0,-999,-99.99,,,-99.99,,2013-04-01 14:33:00,
2013-04-01 10:43:00,-999.0,-99.9,29.76,South,191,8.0,11.0,-999,-99.99,,,-99.99,,2013-04-01 14:43:00,
2013-04-01 10:53:00,-999.0,-99.9,29.76,SSW,211,6.0,10.0,-999,-99.99,,,-99.99,,2013-04-01 14:53:00,
2013-04-01 11:03:00,58.0,-99.9,29.76,SW,220,9.0,12.0,-999,-99.99,,,-99.99,,2013-04-01 15:03:00,
2013-04-01 11:13:00,-999.0,-99.9,29.75,SSW,200,9.0,11.0,-999,-99.99,,,-99.99,,2013-04-01 15:13:00,
2013-04-01 11:23:00,-999.0,-99.9,29.75,South,175,9.0,11.0,-999,-99.99,,,-99.99,,2013-04-01 15:23:00,
2013-04-01 11:34:00,58.0,-99.9,29.75,SSW,200,6.0,11.0,-999,-99.99,,,-99.99,,2013-04-01 15:34:00,
2013-04-01 11:44:00,59.0,-99.9,29.75,SSW,198,6.0,11.0,-999,-99.99,,,-99.99,,2013-04-01 15:44:00,
2013-04-01 11:54:00,-999.0,-99.9,29.75,WSW,239,7.0,16.0,-999,-99.99,,,-99.99,,2013-04-01 15:54:00,
2013-04-01 12:03:00,-999.0,-99.9,29.75,WSW,239,7.0,16.0,-999,-99.99,,,-99.99,,2013-04-01 16:03:00,
2013-04-01 12:13:00,-999.0,-99.9,29.75,West,274,11.0,12.0,-999,-99.99,,,-99.99,,2013-04-01 16:13:00,
2013-04-01 12:23:00,62.0,-99.9,29.74,North,-999,-999.0,-999.0,-999,-99.99,,,-99.99,,2013-04-01 16:23:00,
2013-04-01 12:33:00,62.0,-99.9,29.74,WNW,287,11.0,17.0,-999,-99.99,,,-99.99,,2013-04-01 16:33:00,
2013-04-01 12:43:00,62.0,-99.9,29.74,NW,304,12.0,14.0,-999,-99.99,,,-99.99,,2013-04-01 16:43:00,
2013-04-01 12:53:00,63.0,-99.9,29.73,North,-999,-999.0,-999.0,-999,-99.99,,,-99.99,,2013-04-01 16:53:00,
2013-04-01 13:03:00,62.0,-99.9,29.73,WNW,300,12.0,18.0,-999,-99.99,,,-99.99,,2013-04-01 17:03:00,
2013-04-01 13:13:00,61.0,-99.9,29.73,North,-999,-999.0,-999.0,-999,-99.99,,,-99.99,,2013-04-01 17:13:00,
2013-04-01 13:23:00,63.0,-99.9,29.73,North,-999,-999.0,-999.0,-999,-99.99,,,-99.99,,2013-04-01 17:23:00,
2013-04-01 13:32:00,63.0,-99.9,29.73,North,-999,-999.0,-999.0,-999,-99.99,,,-99.99,,2013-04-01 17:32:00,
2013-04-01 13:42:00,-999.0,-99.9,29.72,WNW,285,11.0,18.0,-999,-99.99,,,-99.99,,2013-04-01 17:42:00,
2013-04-01 13:53:00,-999.0,-99.9,29.72,West,278,17.0,23.0,-999,-99.99,,,-99.99,,2013-04-01 17:53:00,
2013-04-01 14:03:00,63.0,-99.9,29.72,WNW,291,14.0,21.0,-999,-99.99,,,-99.99,,2013-04-01 18:03:00,
2013-04-01 14:13:00,63.0,-99.9,29.72,WNW,283,16.0,24.0,-999,-99.99,,,-99.99,,2013-04-01 18:13:00,
2013-04-01 14:22:00,-999.0,-99.9,29.72,WNW,295,15.0,27.0,-999,-99.99,,,-99.99,,2013-04-01 18:22:00,
2013-04-01 14:33:00,61.0,-99.9,29.72,NW,319,18.0,25.0,-999,-99.99,,,-99.99,,2013-04-01 18:33:00,
2013-04-01 14:43:00,61.0,-99.9,29.73,North,-999,-999.0,-999.0,-999,-99.99,,,-99.99,,2013-04-01 18:43:00,
2013-04-01 14:54:00,-999.0,-99.9,29.73,WNW,296,18.0,26.0,-999,-99.99,,,-99.99,,2013-04-01 18:54:00,
2013-04-01 15:04:00,60.0,-99.9,29.74,WNW,302,15.0,29.0,-999,-99.99,,,-99.99,,2013-04-01 19:04:00,
2013-04-01 15:13:00,59.0,-99.9,29.74,NW,316,17.0,21.0,-999,-99.99,,,-99.99,,2013-04-01 19:13:00,
2013-04-01 15:23:00,57.0,-99.9,29.75,North,-999,-999.0,-999.0,-999,-99.99,,,-99.99,,2013-04-01 19:23:00,
2013-04-01 15:33:00,57.0,-99.9,29.75,North,-999,-999.0,-999.0,-999,-99.99,,,-99.99,,2013-04-01 19:33:00,
2013-04-01 15:43:00,57.0,-99.9,29.76,North,-999,-999.0,-999.0,-999,-99.99,,,-99.99,,2013-04-01 19:43:00,
2013-04-01 15:53:00,57.0,-99.9,29.76,North,-999,-999.0,-999.0,-999,-99.99,,,-99.99,,2013-04-01 19:53:00,
2013-04-01 16:02:00,57.0,-99.9,29.76,NNW,338,17.0,26.0,-999,-99.99,,,-99.99,,2013-04-01 20:02:00,
2013-04-01 16:13:00,-999.0,-99.9,29.77,NNW,345,17.0,26.0,-999,-99.99,,,-99.99,,2013-04-01 20:13:00,
2013-04-01 16:23:00,56.0,-99.9,29.77,North,-999,-999.0,-999.0,-999,-99.99,,,-99.99,,2013-04-01 20:23:00,
2013-04-01 16:33:00,55.0,-99.9,29.77,NW,316,24.0,28.0,-999,-99.99,,,-99.99,,2013-04-01 20:33:00,
2013-04-01 16:43:00,55.0,-99.9,29.78,NNW,338,14.0,27.0,-999,-99.99,,,-99.99,,2013-04-01 20:43:00,
2013-04-01 16:52:00,54.0,-99.9,29.78,North,-999,-999.0,-999.0,-999,-99.99,,,-99.99,,2013-04-01 20:52:00,
2013-04-01 17:03:00,54.0,-99.9,29.79,NW,325,19.0,30.0,-999,-99.99,,,-99.99,,2013-04-01 21:03:00,
2013-04-01 17:12:00,-999.0,-99.9,29.79,NNW,347,15.0,35.0,-999,-99.99,,,-99.99,,2013-04-01 21:12:00,
2013-04-01 17:23:00,-999.0,-99.9,29.79,NW,313,19.0,32.0,-999,-99.99,,,-99.99,,2013-04-01 21:23:00,
2013-04-01 17:33:00,53.0,-99.9,29.80,NW,316,25.0,36.0,-999,-99.99,,,-99.99,,2013-04-01 21:33:00,
2013-04-01 17:44:00,53.0,-99.9,29.81,NW,318,22.0,35.0,-999,-99.99,,,-99.99,,2013-04-01 21:44:00,
2013-04-01 17:53:00,-999.0,-99.9,29.81,NW,318,19.0,24.0,-999,-99.99,,,-99.99,,2013-04-01 21:53:00,
2013-04-01 18:03:00,54.0,-99.9,29.82,NW,317,15.0,22.0,-999,-99.99,,,-99.99,,2013-04-01 22:03:00,
2013-04-01 18:13:00,-999.0,-99.9,29.82,NW,323,23.0,28.0,-999,-99.99,,,-99.99,,2013-04-01 22:13:00,
2013-04-01 18:23:00,52.0,-99.9,29.82,North,-999,-999.0,-999.0,-999,-99.99,,,-99.99,,2013-04-01 22:23:00,
2013-04-01 18:33:00,53.0,-99.9,29.83,NW,315,18.0,26.0,-999,-99.99,,,-99.99,,2013-04-01 22:33:00,
2013-04-01 18:43:00,-999.0,-99.9,29.83,NNW,335,20.0,29.0,-999,-99.99,,,-99.99,,2013-04-01 22:43:00,
2013-04-01 18:52:00,52.0,-99.9,29.84,North,-999,-999.0,-999.0,-999,-99.99,,,-99.99,,2013-04-01 22:52:00,
2013-04-01 19:02:00,52.0,-99.9,29.84,NNW,329,20.0,33.0,-999,-99.99,,,-99.99,,2013-04-01 23:02:00,
2013-04-01 19:12:00,51.0,-99.9,29.85,North,351,15.0,28.0,-999,-99.99,,,-99.99,,2013-04-01 23:12:00,
2013-04-01 19:23:00,51.0,-99.9,29.85,North,-999,-999.0,-999.0,-999,-99.99,,,-99.99,,2013-04-01 23:23:00,
2013-04-01 19:32:00,50.0,-99.9,29.87,NNW,333,16.0,30.0,-999,-99.99,,,-99.99,,2013-04-01 23:32:00,
2013-04-01 19:43:00,50.0,-99.9,29.88,North,-999,-999.0,-999.0,-999,-99.99,,,-99.99,,2013-04-01 23:43:00,
2013-04-01 19:53:00,-999.0,-99.9,29.88,NNW,336,11.0,20.0,-999,-99.99,,,-99.99,,2013-04-01 23:53:00,
2013-04-01 20:03:00,49.0,-99.9,29.89,NW,319,12.0,20.0,-999,-99.99,,,-99.99,,2013-04-02 00:03:00,
2013-04-01 20:12:00,49.0,-99.9,29.89,NW,322,17.0,26.0,-999,-99.99,,,-99.99,,2013-04-02 00:12:00,
2013-04-01 20:23:00,-999.0,-99.9,29.89,NW,320,18.0,24.0,-999,-99.99,,,-99.99,,2013-04-02 00:23:00,
2013-04-01 20:33:00,48.0,-99.9,29.90,NW,320,21.0,26.0,-999,-99.99,,,-99.99,,2013-04-02 00:33:00,
2013-04-01 20:43:00,-999.0,-99.9,29.90,NW,316,19.0,24.0,-999,-99.99,,,-99.99,,2013-04-02 00:43:00,
2013-04-01 20:53:00,48.0,-99.9,29.91,North,-999,-999.0,-999.0,-999,-99.99,,,-99.99,,2013-04-02 00:53:00,
2013-04-01 21:03:00,48.0,-99.9,29.91,NW,310,11.0,17.0,-999,-99.99,,,-99.99,,2013-04-02 01:03:00,
2013-04-01 21:12:00,48.0,-99.9,29.92,North,-999,-999.0,-999.0,-999,-99.99,,,-99.99,,2013-04-02 01:12:00,
2013-04-01 21:22:00,47.0,-99.9,29.93,North,-999,-999.0,-999.0,-999,-99.99,,,-99.99,,2013-04-02 01:22:00,
2013-04-01 21:32:00,47.0,-99.9,29.93,NW,320,12.0,20.0,-999,-99.99,,,-99.99,,2013-04-02 01:32:00,
2013-04-01 21:43:00,47.0,-99.9,29.94,NW,314,11.0,17.0,-999,-99.99,,,-99.99,,2013-04-02 01:43:00,
2013-04-01 21:53:00,-999.0,-99.9,29.94,NW,315,10.0,14.0,-999,-99.99,,,-99.99,,2013-04-02 01:53:00,
2013-04-01 22:03:00,46.0,-99.9,29.94,NW,317,7.0,12.0,-999,-99.99,,,-99.99,,2013-04-02 02:03:00,
2013-04-01 22:13:00,46.0,-99.9,29.95,North,-999,-999.0,-999.0,-999,-99.99,,,-99.99,,2013-04-02 02:13:00,
2013-04-01 22:23:00,46.0,-99.9,29.95,North,-999,-999.0,-999.0,-999,-99.99,,,-99.99,,2013-04-02 02:23:00,
2013-04-01 22:33:00,46.0,-99.9,29.96,NW,318,8.0,11.0,-999,-99.99,,,-99.99,,2013-04-02 02:33:00,
2013-04-01 22:43:00,46.0,-99.9,29.96,NW,312,7.0,9.0,-999,-99.99,,,-99.99,,2013-04-02 02:43:00,
2013-04-01 22:53:00,-999.0,-99.9,29.96,NW,312,7.0,10.0,-999,-99.99,,,-99.99,,2013-04-02 02:53:00,
2013-04-01 23:02:00,46.0,-99.9,29.96,NW,314,5.0,8.0,-999,-99.99,,,-99.99,,2013-04-02 03:02:00,
2013-04-01 23:13:00,45.0,-99.9,29.97,North,-999,-999.0,-999.0,-999,-99.99,,,-99.99,,2013-04-02 03:13:00,
2013-04-01 23:22:00,-999.0,-99.9,29.97,WNW,302,5.0,8.0,-999,-99.99,,,-99.99,,2013-04-02 03:22:00,
2013-04-01 23:34:00,45.0,-99.9,29.97,NW,310,5.0,9.0,-999,-99.99,,,-99.99,,2013-04-02 03:34:00,
2013-04-01 23:43:00,45.0,-99.9,29.98,North,-999,-999.0,-999.0,-999,-99.99,,,-99.99,,2013-04-02 03:43:00,
2013-04-01 23:53:00,45.0,-99.9,29.98,North,-999,-999.0,-999.0,-999,-99.99,,,-99.99,,2013-04-02 03:53:00,